Location: Narrabri
(30.3170°S, 149.7830°E)
Time: 12:17:34
(UTC+10:00)

XW-2D - Visible Passes

Search period start: 17 July 2018 00:00
Search period end: 27 July 2018 00:00
Orbit: 511 x 528 km, 97.5° (Epoch: 16 July)

Date Brightness Start Highest point End Pass type
(mag) Time Alt. Az. Time Alt. Az. Time Alt. Az.
17 Jul ? 05:45:18 10° N 05:48:55 42° W 05:51:47 15° SSW visible
17 Jul ? 18:58:22 10° SW 19:00:21 14° WSW 19:02:20 10° WNW visible
18 Jul ? 05:31:33 10° N 05:35:19 67° W 05:38:08 17° SSW visible
18 Jul ? 18:44:01 10° SSW 18:46:53 21° WSW 18:49:44 10° WNW visible
19 Jul ? 05:17:58 10° NNE 05:21:44 76° E 05:24:28 18° S visible
19 Jul ? 18:30:01 10° SSW 18:33:23 31° WSW 18:36:44 10° NW visible
20 Jul ? 05:04:33 10° NNE 05:08:12 47° ESE 05:10:49 18° S visible
20 Jul ? 18:16:11 10° S 18:19:51 48° WSW 18:23:30 10° NNW visible
21 Jul ? 04:51:21 10° NE 04:54:40 30° ESE 04:57:10 15° SSE visible
21 Jul ? 06:27:20 10° WNW 06:28:50 12° W 06:30:22 10° WSW visible
21 Jul ? 18:02:30 10° S 18:06:19 77° W 18:10:05 10° NNW visible
22 Jul ? 04:38:21 10° ENE 04:41:11 20° ESE 04:43:31 12° SSE visible
22 Jul ? 06:12:31 10° NW 06:15:11 18° W 06:17:52 10° SW visible
22 Jul ? 17:48:57 10° SSE 17:52:45 66° E 17:56:30 10° N visible
23 Jul ? 04:25:46 10° ENE 04:27:42 14° ESE 04:29:41 10° SE visible
23 Jul ? 05:58:17 10° NNW 06:01:33 27° W 06:04:50 10° SW visible
24 Jul ? 05:44:20 10° N 05:47:56 43° W 05:51:20 11° SSW visible
24 Jul ? 18:57:17 10° SW 18:59:22 14° WSW 19:01:27 10° WNW visible
25 Jul ? 05:30:35 10° N 05:34:19 69° WNW 05:37:43 13° SSW visible
25 Jul ? 18:42:59 10° SSW 18:45:54 21° WSW 18:48:48 10° WNW visible
26 Jul ? 05:17:01 10° NNE 05:20:45 74° ESE 05:24:06 13° S visible
26 Jul ? 18:28:59 10° S 18:32:23 32° WSW 18:35:47 10° NW visible
